{"data":{"norad_id":40119,"epoch":"2026-05-24T19:21:09.130752Z","epoch_age_seconds":102065,"freshness":"FRESH","line1":"1 40119U 14049B   26144.80635568  .00001598  00000+0  15329-3 0  9996","line2":"2 40119  97.9075 256.6311 0014002 181.3612 178.7572 14.94491370637956","mean_motion":14.9449137,"eccentricity":0.0014002,"inclination_deg":97.9075,"raan_deg":256.6311,"arg_perigee_deg":181.3612,"mean_anomaly_deg":178.7572,"bstar":0.00015329,"rev_number":63795,"period_min":96.353851812473,"perigee_km":574.20362171393,"apogee_km":593.70025557771,"semimajor_km":6962.0889386458,"source":"CELESTRAK","updated_at":"2026-05-25T13:38:25.524623Z"}}